Wilmington, NC

10:09 AM EDT on September 29, 2016 (GMT -0400)
Wilmington International

Weather History for KILM - June, 2014

Change the Weather History Date:

Friday, June 20, 2014

  Actual Average Record
Temperature  
Mean Temperature 85 °F 79 °F  
Max Temperature 97 °F 88 °F 101 °F (2011)
Min Temperature 72 °F 70 °F 54 °F (1879)
Degree Days  
Heating Degree Days 0 0  
Month to date heating degree days 0 0  
Since 1 June heating degree days 0 0  
Since 1 July heating degree days 2432 2409  
Cooling Degree Days 20 14  
Month to date cooling degree days 283 238  
Year to date cooling degree days 690 519  
Since 1 June cooling degree days 283 238  
Growing Degree Days 35 (Base 50)    
Moisture  
Dew Point 71 °F    
Average Humidity 63    
Maximum Humidity 87    
Minimum Humidity 38    
Precipitation  
Precipitation 0.01 in 0.17 in 2.17 in (1947)
Month to date precipitation 1.30 3.35  
Year to date precipitation 20.54 22.25  
Sea Level Pressure  
Sea Level Pressure 29.97 in    
Wind  
Wind Speed 8 mph (WSW)    
Max Wind Speed 18 mph    
Max Gust Speed 22 mph    
Visibility 10 miles    
Events Rain , Thunderstorm    
T = Trace of Precipitation, MM = Missing Value Source: NWS Daily Summary

Daily Weather History Graph

Daily Weather History Graph

Search for Another Location

Airport or City:

Trip Planner

Search our weather history database for the weather conditions in past years. The results will help you decide how hot, cold, wet, or windy it might be!

Date:

Astronomy

Jun. 20, 2014 Rise Set
Actual Time 5:59 AM EDT 8:26 PM EDT
Civil Twilight 5:30 AM EDT 8:55 PM EDT
Nautical Twilight 4:54 AM EDT 9:32 PM EDT
Astronomical Twilight 4:14 AM EDT 10:11 PM EDT
Moon 1:22 AM EDT (6/20) 2:12 PM EDT (6/20)
Length of Visible Light 15h 25m
Length of Day
14h 26m
Last Quarter, 40% of the Moon is Illuminated
Jun 20
Last Quarter
Jun 27
New
Jul 5
First Quarter
Jul 12
Full
Jul 18
Last Quarter

Hourly Weather History & Observations

Time (EDT) Temp. Heat Index Dew Point Humidity Pressure Visibility Wind Dir Wind Speed Gust Speed Precip Events Conditions
12:53 AM 78.1 °F - 72.0 °F 81% 30.04 in 10.0 mi SW 8.1 mph - N/A   Clear
1:53 AM 78.1 °F - 73.0 °F 84% 30.01 in 10.0 mi WSW 5.8 mph - N/A   Clear
2:53 AM 77.0 °F - 72.0 °F 84% 30.00 in 10.0 mi WSW 3.5 mph - N/A   Clear
3:53 AM 77.0 °F - 71.1 °F 82% 30.03 in 10.0 mi NNW 6.9 mph - N/A   Mostly Cloudy
4:53 AM 75.9 °F - 71.1 °F 85% 30.01 in 10.0 mi SW 5.8 mph - N/A   Clear
5:53 AM 75.9 °F - 70.0 °F 82% 30.01 in 10.0 mi SSW 5.8 mph - N/A   Clear
6:53 AM 77.0 °F - 70.0 °F 79% 30.01 in 10.0 mi SW 6.9 mph - N/A   Clear
7:53 AM 79.0 °F - 70.0 °F 74% 30.01 in 10.0 mi SW 12.7 mph - N/A   Clear
8:53 AM 82.0 °F 86.3 °F 71.1 °F 69% 30.02 in 10.0 mi West 10.4 mph - N/A   Clear
9:53 AM 84.9 °F 90.1 °F 71.1 °F 63% 30.02 in 10.0 mi West 9.2 mph - N/A   Clear
10:53 AM 87.1 °F 92.0 °F 70.0 °F 57% 30.02 in 10.0 mi West 10.4 mph - N/A   Clear
11:53 AM 90.0 °F 95.4 °F 70.0 °F 52% 30.01 in 10.0 mi Variable 6.9 mph - N/A   Clear
12:53 PM 91.9 °F 97.4 °F 70.0 °F 48% 30.00 in 10.0 mi West 8.1 mph - N/A   Scattered Clouds
1:53 PM 93.0 °F 97.9 °F 69.1 °F 45% 29.99 in 10.0 mi North - - N/A   Partly Cloudy
2:53 PM 93.9 °F 99.1 °F 69.1 °F 44% 29.96 in 10.0 mi Variable 4.6 mph - N/A   Clear
3:53 PM 95.0 °F 99.0 °F 66.9 °F 40% 29.94 in 10.0 mi NW 9.2 mph - N/A   Clear
4:27 PM 97.0 °F 101.0 °F 66.9 °F 37% 29.92 in 10.0 mi NW 8.1 mph - N/A Thunderstorm Clear
4:53 PM 96.1 °F 99.3 °F 66.0 °F 37% 29.92 in 10.0 mi WNW 9.2 mph - N/A   Clear
5:53 PM 91.9 °F 101.3 °F 73.9 °F 55% 29.91 in 10.0 mi SW 10.4 mph - N/A   Mostly Cloudy
6:25 PM 89.1 °F 98.0 °F 73.9 °F 61% 29.92 in 10.0 mi South 8.1 mph 16.1 mph N/A Thunderstorm Partly Cloudy
6:41 PM 84.2 °F 90.9 °F 73.4 °F 70% 29.92 in 10.0 mi NNE 8.1 mph - N/A   Mostly Cloudy
6:49 PM 84.2 °F 90.9 °F 73.4 °F 70% 29.92 in 10.0 mi NNE 15.0 mph - N/A Thunderstorm Thunderstorm
6:53 PM 82.9 °F 88.0 °F 72.0 °F 69% 29.93 in 10.0 mi NE 12.7 mph - N/A Thunderstorm Thunderstorm
7:10 PM 82.9 °F 89.4 °F 73.9 °F 74% 29.93 in 10.0 mi NE 5.8 mph - N/A Thunderstorm Overcast
7:18 PM 84.0 °F 91.9 °F 75.0 °F 74% 29.93 in 10.0 mi ENE 4.6 mph - 0.00 in Rain Light Rain
7:42 PM 84.0 °F 91.9 °F 75.0 °F 74% 29.94 in 10.0 mi SSW 9.2 mph - 0.00 in Thunderstorm Scattered Clouds
7:53 PM 84.0 °F 91.9 °F 75.0 °F 74% 29.94 in 10.0 mi South 9.2 mph - 0.00 in Thunderstorm Partly Cloudy
8:04 PM 82.9 °F 89.4 °F 73.9 °F 74% 29.95 in 10.0 mi SW 9.2 mph - N/A Thunderstorm Thunderstorm
8:19 PM 82.9 °F 89.4 °F 73.9 °F 74% 29.96 in 10.0 mi WSW 8.1 mph - N/A Thunderstorm Partly Cloudy
8:38 PM 82.0 °F 87.4 °F 73.0 °F 74% 29.98 in 10.0 mi North 8.1 mph - N/A Thunderstorm Mostly Cloudy
8:53 PM 79.0 °F - 72.0 °F 79% 29.97 in 10.0 mi NNE 8.1 mph - N/A Thunderstorm Overcast
9:07 PM 79.0 °F - 72.0 °F 79% 29.98 in 10.0 mi NE 5.8 mph - N/A Thunderstorm Mostly Cloudy
9:18 PM 78.1 °F - 72.0 °F 81% 29.97 in 10.0 mi Calm Calm - N/A   Scattered Clouds
9:53 PM 78.1 °F - 72.0 °F 81% 29.98 in 10.0 mi Calm Calm - 0.00 in   Partly Cloudy
10:06 PM 79.0 °F - 72.0 °F 79% 29.98 in 10.0 mi Calm Calm - N/A Thunderstorm Thunderstorm
10:21 PM 78.1 °F - 72.0 °F 81% 30.00 in 10.0 mi West 17.3 mph - 0.00 in Rain , Thunderstorm Light Rain
10:39 PM 73.9 °F - 68.0 °F 82% 29.98 in 10.0 mi WSW 15.0 mph - 0.00 in Rain , Thunderstorm Light Rain
10:53 PM 73.0 °F - 68.0 °F 84% 29.97 in 10.0 mi WSW 12.7 mph - 0.00 in Rain , Thunderstorm Light Rain
11:18 PM 73.9 °F - 66.9 °F 79% 29.96 in 10.0 mi Variable 3.5 mph - 0.00 in Thunderstorm Thunderstorm
11:33 PM 73.9 °F - 66.9 °F 79% 29.95 in 10.0 mi Variable 4.6 mph - 0.00 in   Partly Cloudy
11:50 PM 73.4 °F - 66.2 °F 78% 29.95 in 10.0 mi SSW 10.4 mph - 0.00 in Rain , Thunderstorm Light Rain
11:53 PM 73.9 °F - 68.0 °F 82% 29.96 in 10.0 mi SW 9.2 mph - 0.00 in Rain , Thunderstorm Light Rain